Weather in Yangi Chinoz

Uzbekistan     40°54′39″N   68°42′38″E
temp.,
°C
wind,
m/s
gust,
m/s
humid.,
%
clouds,
%
prec.,
mm/h
press.,
hPa
HPBL,
m
5 december, sun
sun523:00+10wsw2360100 0.0 102139
02:00+8w236728 0.0 102246
05:00+6nw2268100 0.0 102318
08:00+6n1160100 0.0 102413
11:00+9nnw2245100 0.0 1024411
14:00+11nnw334069 0.0 1023783
17:00+9n224956 0.0 102314
20:00+7n335724 0.0 102440
6 december, mon
mon623:00+6nne22615 0.0 102318
02:00+5ene11655 0.0 102310
05:00+5ne11680 0.0 102310
08:00+5e11690 0.0 102410
11:00+10sw11500 0.0 1024297
14:00+13ene11395 0.0 1021588
17:00+11nne2247100 0.0 102214
20:00+9nne3355100 0.0 102231
7 december, tue
tue723:00+8nne2259100 0.0 102319
02:00+8ne2261100 0.0 102317
05:00+8n1159100 0.0 102311
08:00+8ne2258100 0.0 102411
11:00+12nnw1144100 0.0 1025211
14:00+14n2237100 0.0 1024455
17:00+12nne1139100 0.0 102510
20:00+11nw1242100 0.0 102611
8 december, wed
wed823:00+10n114595 0.0 102610
02:00+9sse114876 0.0 102710
05:00+8w1152100 0.0 102810
08:00+8nne1154100 0.0 102910
11:00+11w1142100 0.0 1029231
14:00+13nw113395 0.0 1028544
17:00+11nnw223975 0.0 103017
20:00+9n22510 0.0 103111
9 december, thu
thu923:00+8ne22550 0.0 103110
02:00+7e11560 0.0 103110
05:00+6ne22580 0.0 103110
08:00+6ne22590 0.0 103210
11:00+12ese22370 0.0 1031271
14:00+16ene23270 0.0 1028567
17:00+12nne22320 0.0 102710
20:00+10ne12360 0.0 102810